This demonstration page uses our WeatherBlox Daily Observations layout. Learn more.

Left ArrowRight Arrow

39.51506, -84.39828

Hourly Observations for December 14, 2018

Temp ( °F °C ) Dew Point ( °F °C ) Humidity (%) Winds ( mph kmh ) Pressure ( in mb ) Visibility ( mi km ) Precip ( " mm )
12:15 am 00:15 Clear 39 4.1 36 2.3 88 88 N N/A 30.18 1022 10 16 N/A
12:35 am 00:35 Clear 39 4 36 2.3 89 89 N N/A 30.18 1022 10 16 N/A
12:55 am 00:55 Clear 39 3.8 36 2.2 89 89 N N/A 30.18 1022 10 16 N/A
1:15 am 01:15 Clear 38 3.3 35 1.8 90 90 N N/A 30.18 1022 10 16 N/A
1:35 am 01:35 Clear 38 3.3 36 2 91 91 N N/A 30.18 1022 10 16 N/A
1:55 am 01:55 Clear 37 2.8 35 1.7 93 93 N N/A 30.18 1022 10 16 N/A
2:15 am 02:15 Clear 37 2.7 35 1.8 94 94 N N/A 30.18 1022 10 16 N/A
2:35 am 02:35 Clear 37 2.9 35 1.9 93 93 N N/A 30.18 1022 10 16 N/A
2:55 am 02:55 Clear 37 3 36 2.2 95 95 ENE 3 6 30.18 1022 10 16 N/A
3:15 am 03:15 Clear 37 3 36 2.2 95 95 N N/A 30.18 1022 10 16 N/A
3:35 am 03:35 Clear 37 2.7 36 2 95 95 N N/A 30.18 1022 10 16 N/A
3:55 am 03:55 Clear 37 2.6 35 1.8 95 95 N N/A 30.18 1022 10 16 N/A
4:15 am 04:15 Partly Cloudy 37 3 36 2.1 94 94 N N/A 30.18 1022 10 16 N/A
4:35 am 04:35 Cloudy 38 3.2 36 2.2 93 93 N N/A 30.18 1022 10 16 N/A
4:55 am 04:55 Clear 37 2.9 36 2.1 95 95 N N/A 30.15 1021 10 16 N/A
5:15 am 05:15 Clear 37 3 36 2.1 94 94 N N/A 30.15 1021 10 16 N/A
5:35 am 05:35 Cloudy 37 2.9 35 1.9 93 93 N N/A 30.18 1022 10 16 N/A
5:55 am 05:55 Cloudy 38 3.2 37 2.5 95 95 N N/A 30.18 1022 10 16 N/A
6:15 am 06:15 Cloudy 38 3.3 37 2.5 95 95 N N/A 30.18 1022 10 16 N/A
6:35 am 06:35 Cloudy 39 3.7 37 2.5 92 92 N N/A 30.18 1022 10 16 N/A
6:55 am 06:55 Cloudy 39 3.7 37 2.6 93 93 N N/A 30.18 1022 10 16 N/A
7:15 am 07:15 Cloudy 39 4 37 2.8 92 92 N N/A 30.21 1023 10 16 N/A
7:35 am 07:35 Cloudy 39 4 37 2.9 93 93 N N/A 30.21 1023 10 16 N/A
7:55 am 07:55 Cloudy with Drizzle 39 4 37 2.9 93 93 N N/A 30.21 1023 10 16 N/A
8:15 am 08:15 Cloudy with Light Rain 40 4.2 38 3.1 93 93 N N/A 30.21 1023 10 16 N/A
8:35 am 08:35 Cloudy 40 4.6 38 3.6 93 93 N N/A 30.21 1023 10 16 N/A
8:55 am 08:55 Cloudy 42 5.3 39 3.7 90 90 N N/A 30.18 1022 10 16 N/A
9:15 am 09:15 Cloudy with Light Rain 42 5.4 39 3.8 90 90 N N/A 30.18 1022 10 16 N/A
9:35 am 09:35 Cloudy 42 5.8 40 4.2 90 90 N N/A 30.18 1022 10 16 N/A
9:55 am 09:55 Cloudy 43 6.1 40 4.2 88 88 NNE 3 6 30.18 1022 10 16 N/A
10:15 am 10:15 Cloudy 44 6.8 40 4.3 84 84 NE 3 6 30.18 1022 10 16 N/A
10:35 am 10:35 Cloudy 46 7.8 39 4 77 77 NNE 6 9 30.18 1022 10 16 N/A
10:55 am 10:55 Cloudy 48 8.7 39 3.7 71 71 NNE 6 9 30.15 1021 10 16 N/A
11:15 am 11:15 Cloudy 48 9.1 38 3.3 67 67 NE 5 7 30.15 1021 10 16 N/A
11:35 am 11:35 Cloudy 50 9.9 38 3.4 64 64 NE 6 9 30.15 1021 10 16 N/A
11:55 am 11:55 Cloudy 50 10.1 38 3.3 63 63 NE 5 7 30.15 1021 10 16 N/A
12:15 pm 12:15 Cloudy 51 10.3 38 3.6 63 63 NNE 5 7 30.15 1021 10 16 N/A
12:35 pm 12:35 Cloudy 51 10.8 39 3.9 63 63 NNE 6 9 30.15 1021 10 16 N/A
12:55 pm 12:55 Cloudy 52 11.2 40 4.2 62 62 NNE 6 9 30.12 1020 10 16 N/A
1:15 pm 13:15 Mostly Cloudy 52 11.3 39 4.1 62 62 NNE 5 7 30.12 1020 10 16 N/A
1:35 pm 13:35 Mostly Cloudy 53 11.5 39 4 60 60 NNE 5 7 30.12 1020 10 16 N/A
1:55 pm 13:55 Cloudy 53 11.5 39 4.1 61 61 NNE 3 6 30.12 1020 10 16 N/A
2:15 pm 14:15 Cloudy 53 11.6 39 3.9 59 59 NNE 3 6 30.09 1019 10 16 N/A
2:35 pm 14:35 Partly Cloudy 53 11.5 39 4.1 61 61 NE 3 6 30.09 1019 10 16 N/A
2:55 pm 14:55 Cloudy 53 11.4 40 4.2 62 62 NE 3 6 30.12 1020 10 16 N/A
3:15 pm 15:15 Cloudy 52 11.3 40 4.5 63 63 NE 3 6 30.12 1020 10 16 N/A
3:35 pm 15:35 Cloudy 52 11.2 41 4.8 65 65 NE 3 6 30.12 1020 10 16 N/A
3:55 pm 15:55 Cloudy 53 11.7 41 4.9 63 63 NE 7 11 30.09 1019 10 16 N/A
4:15 pm 16:15 Cloudy 53 11.7 41 4.8 63 63 NE 8 13 30.09 1019 10 16 N/A
4:35 pm 16:35 Cloudy 53 11.6 41 4.8 63 63 NE 8 13 30.09 1019 10 16 N/A
4:55 pm 16:55 Cloudy 52 10.9 41 4.8 66 66 NE 8 13 30.09 1019 10 16 N/A
5:15 pm 17:15 Mostly Cloudy 51 10.5 40 4.5 67 67 ENE 7 11 30.12 1020 10 16 N/A
5:35 pm 17:35 Cloudy 51 10.4 40 4.4 67 67 ENE 6 9 30.12 1020 10 16 N/A
5:55 pm 17:55 Cloudy 51 10.3 40 4.3 67 67 ENE 7 11 30.12 1020 10 16 N/A
6:15 pm 18:15 Cloudy 50 10.2 40 4.5 68 68 NE 7 11 30.12 1020 10 16 N/A
6:35 pm 18:35 Cloudy 50 10.1 40 4.6 69 69 ENE 6 9 30.12 1020 10 16 N/A
6:55 pm 18:55 Cloudy 50 9.9 41 4.9 71 71 ENE 6 9 30.09 1019 10 16 N/A
7:15 pm 19:15 Cloudy 49 9.7 41 5.1 73 73 ENE 5 7 30.09 1019 10 16 N/A
7:35 pm 19:35 Cloudy 49 9.4 41 5.2 75 75 ENE 3 6 30.09 1019 10 16 N/A
7:55 pm 19:55 Cloudy 49 9.6 42 5.3 75 75 NNE 3 6 30.09 1019 10 16 N/A
8:15 pm 20:15 Cloudy with Light Rain 48 9 42 5.7 80 80 N 5 7 30.09 1019 10 16 N/A
8:35 pm 20:35 Cloudy with Light Rain 48 9.1 43 5.9 81 81 NNE 7 11 30.06 1018 10 16 N/A
8:55 pm 20:55 Mostly Cloudy 49 9.4 42 5.8 78 78 NNE 7 11 30.06 1018 10 16 N/A
9:15 pm 21:15 Partly Cloudy 49 9.4 42 5.8 78 78 NE 8 13 30.06 1018 10 16 N/A
9:35 pm 21:35 Clear 49 9.4 42 5.7 78 78 NNE 8 13 30.06 1018 10 16 N/A
9:55 pm 21:55 Cloudy 49 9.4 42 5.4 76 76 NNE 10 17 30.03 1017 10 16 N/A
10:15 pm 22:15 Partly Cloudy 49 9.2 42 5.4 77 77 NNE 9 15 30.03 1017 10 16 N/A
10:35 pm 22:35 Clear 49 9.3 42 5.7 78 78 NNE 12 19 30.03 1017 10 16 N/A
10:55 pm 22:55 Clear 48 9.1 42 5.3 77 77 N 7 11 30.06 1018 10 16 N/A
11:15 pm 23:15 Clear 48 9 41 5.2 77 77 NNE 12 19 30.06 1018 10 16 N/A
11:35 pm 23:35 Partly Cloudy 48 9.1 41 5.2 77 77 NNE 12 19 30.03 1017 10 16 N/A
11:55 pm 23:55 Partly Cloudy 48 9.1 41 4.9 75 75 NNE 12 19 30.03 1017 10 16 N/A

Powered by AerisWeather